Change the Weather History Date:

Friday, March 8, 2013

  Actual Average Record
Temperature  
Mean Temperature 34 °F 29 °F  
Max Temperature 48 °F 42 °F 50 °F (2004)
Min Temperature 19 °F 16 °F -9 °F (1998)
Degree Days  
Heating Degree Days 31 36  
Month to date heating degree days 307 303  
Since 1 July heating degree days 6626 6629  
Cooling Degree Days 0 0  
Month to date cooling degree days 0 0  
Year to date cooling degree days 0 0  
Moisture  
Dew Point 23 °F    
Average Humidity 61    
Maximum Humidity 81    
Minimum Humidity 41    
Precipitation  
Precipitation 0.01 in 0.03 in 0.30 in (2006)
Month to date precipitation 0.15 0.27  
Year to date precipitation 1.19 1.97  
Sea Level Pressure  
Sea Level Pressure 29.84 in    
Wind  
Wind Speed 3 mph (SW)    
Max Wind Speed 10 mph    
Max Gust Speed 13 mph    
Visibility 10 miles    
Events Rain    
T = Trace of Precipitation, MM = Missing Value Source: NWS Daily Summary

Daily Weather History Graph

Daily Weather History Graph

Search for Another Location

Airport or City:

Trip Planner

Search our weather history database for the weather conditions in past years. The results will help you decide how hot, cold, wet, or windy it might be!

Date:

Astronomy

Mar. 08, 2013 Rise Set
Actual Time 6:32 AM MST 6:09 PM MST
Civil Twilight 6:05 AM MST 6:36 PM MST
Nautical Twilight 5:33 AM MST 7:08 PM MST
Astronomical Twilight 5:01 AM MST 7:40 PM MST
Moon 4:19 AM MST (3/8) 3:07 PM MST (3/8)
Length of Visible Light 12h 31m
Length of Day
11h 37m
Waning Crescent, 11% of the Moon is Illuminated
Mar 8
Waning Crescent
Mar 11
New
Mar 19
First Quarter
Mar 27
Full
Apr 2
Last Quarter

Hourly Weather History & Observations

Time (MST) Temp. Windchill Dew Point Humidity Pressure Visibility Wind Dir Wind Speed Gust Speed Precip Events Conditions
12:53 AM 24.1 °F 19.7 °F 18.0 °F 77% 29.95 in 10.0 mi West 3.5 mph - N/A   Clear
1:53 AM 21.9 °F 17.2 °F 16.0 °F 78% 29.94 in 10.0 mi SW 3.5 mph - N/A   Clear
2:53 AM 23.0 °F - 16.0 °F 74% 29.91 in 10.0 mi Calm Calm - N/A   Clear
3:53 AM 21.0 °F - 16.0 °F 81% 29.92 in 10.0 mi Calm Calm - N/A   Clear
4:53 AM 19.9 °F - 14.0 °F 78% 29.94 in 10.0 mi Calm Calm - N/A   Clear
5:53 AM 21.9 °F - 15.1 °F 75% 29.96 in 10.0 mi Calm Calm - N/A   Clear
6:53 AM 21.9 °F - 16.0 °F 78% 29.98 in 10.0 mi Calm Calm - N/A   Clear
7:53 AM 24.1 °F - 18.0 °F 77% 29.98 in 10.0 mi Calm Calm - N/A   Clear
8:53 AM 30.9 °F 27.5 °F 21.0 °F 67% 29.96 in 10.0 mi SSW 3.5 mph - N/A   Clear
9:53 AM 37.9 °F - 19.9 °F 48% 29.92 in 10.0 mi Calm Calm - N/A   Clear
10:53 AM 41.0 °F 38.0 °F 21.9 °F 47% 29.89 in 10.0 mi WSW 4.6 mph - N/A   Partly Cloudy
11:53 AM 44.1 °F - 23.0 °F 43% 29.84 in 10.0 mi Calm Calm - N/A   Clear
12:53 PM 43.0 °F 41.3 °F 26.1 °F 51% 29.81 in 10.0 mi South 3.5 mph - N/A   Clear
1:53 PM 45.0 °F 41.8 °F 24.1 °F 44% 29.79 in 10.0 mi SW 5.8 mph - N/A   Partly Cloudy
2:53 PM 43.0 °F 37.7 °F 24.1 °F 47% 29.79 in 10.0 mi West 9.2 mph - N/A   Scattered Clouds
3:53 PM 41.0 °F 36.4 °F 25.0 °F 53% 29.79 in 10.0 mi SW 6.9 mph - N/A   Partly Cloudy
4:53 PM 39.9 °F 35.1 °F 26.1 °F 58% 29.79 in 10.0 mi SSW 6.9 mph - N/A   Overcast
5:53 PM 37.0 °F 34.5 °F 27.0 °F 67% 29.80 in 10.0 mi Variable 3.5 mph - N/A   Overcast
6:53 PM 37.9 °F - 26.1 °F 62% 29.79 in 10.0 mi Calm Calm - N/A   Overcast
7:53 PM 37.0 °F 30.4 °F 28.0 °F 70% 29.78 in 10.0 mi WSW 9.2 mph - N/A   Overcast
8:53 PM 36.0 °F - 28.9 °F 76% 29.76 in 10.0 mi Calm Calm - N/A   Overcast
9:53 PM 35.1 °F - 28.9 °F 78% 29.72 in 10.0 mi Calm Calm - N/A   Overcast
10:23 PM 35.6 °F 32.8 °F 30.2 °F 81% 29.72 in 6.0 mi West 3.5 mph - 0.00 in Rain Light Rain
10:53 PM 34.0 °F 31.0 °F 30.9 °F 89% 29.70 in 10.0 mi SW 3.5 mph - 0.01 in Rain Light Rain
11:01 PM 33.8 °F - 30.2 °F 87% 29.70 in 10.0 mi Calm Calm - 0.00 in Rain Light Rain
11:26 PM 33.8 °F 30.8 °F 28.4 °F 81% 29.69 in 10.0 mi SW 3.5 mph - 0.00 in   Scattered Clouds
11:53 PM 34.0 °F 28.8 °F 30.9 °F 89% 29.67 in 10.0 mi SSW 5.8 mph - 0.00 in   Mostly Cloudy